リニア彗星

C/2003 W1 ( LINEAR )

English version
Home page
Total 6,336 html files since Dec. 4, 1995
Updated on March 10, 2004

---------------------------------------------------------------------

・ プロフィール

発見日 2003年11月16日
発見光度 18.5等
発見者 Lincoln Laboratory Near-Earth Asteroid Research project

・ 軌道要素

Epoch 2003 Nov. 17.0 TT = JDT 2452960.5
T 2003 Nov.  9.46257 TT                                 MPC
q   1.6524247            (2000.0)            P               Q
n   0.00780203     Peri.  113.28835     +0.27538798     +0.13113485
a  25.1766386      Node   256.74249     -0.04434835     +0.99133083
e   0.9343667      Incl.   78.07610     +0.96030968     +0.00817541
P 126.33
>From 93 observations 2003 Nov. 16-2004 Feb. 13, mean residual 0".71.

・ 星図

・ 光度変化

        m1 = 12.0 + 5 logΔ + 17.5 log r

---------------------------------------------------------------------

軌道要素はM.P.E.C. 2004-D20に掲載されたものです。
星図は StellaNavigator Ver.2.0 for Windows (アストロアーツ 編著 / アスキー出版局刊) で作成したものです。
光度グラフはComet for Windowsで作成したものです。

---------------------------------------------------------------------

Copyright(C) 1995-2008 Seiichi Yoshida (comet@aerith.net). All rights reserved.